User: anonymous   Login
Location: Seasalter
(51.3333°N, 1.0167°E)
Time: 10:31:36
(UTC+00:00)
Language:

SL-16 R/B - Orbit

View from above orbital plane
View from above orbital plane
View from above satellite
View from above satellite

Ground track
Ground track

The orbit data is extracted from the following two-line orbital elements,

1 27006U 01056F   24056.95917247  .00000001  00000-0  51833-4 0  9993
2 27006  99.6642 203.3675 0015310  96.9204  11.9264 13.71020588111415
Epoch (UTC): 25 February 2024 23:01:12
Eccentricity: 0.0015310
inclination: 99.6642°
perigee height: 984 km
apogee height: 1007 km
right ascension of ascending node: 203.3675°
argument of perigee: 96.9204°
revolutions per day: 13.71020588
mean anomaly at epoch: 11.9264°
orbit number at epoch: 11141

The dashed part of the orbit path shows where the satellite is in the earth's shadow,  

DLR